User: anonymous   Login
Location: Unspecified
(0.0000°N, 0.0000°E)
Time: 13:02:23
(UTC+00:00)
Language:

FALCONSAT 3 - Orbit

View from above orbital plane
View from above orbital plane
View from above satellite
View from above satellite

Ground track
Ground track

The orbit data is extracted from the following two-line orbital elements,

1 30776U 07006E   19196.65826193 +.00001532 +00000-0 +43810-4 0  9993
2 30776 035.4348 278.5647 0002933 340.6633 019.3982 15.36271123684835
Epoch (UTC): 15 July 2019 15:47:53
Eccentricity: 0.0002933
inclination: 35.4348°
perigee height: 455 km
apogee height: 459 km
right ascension of ascending node: 278.5647°
argument of perigee: 340.6633°
revolutions per day: 15.36271123
mean anomaly at epoch: 19.3982°
orbit number at epoch: 68483

The dashed part of the orbit path shows where the satellite is in the earth's shadow,  

DLR